World > North America > United States > Wisconsin

Richland Center, Wisconsin Regional Weather

Lat: 43.34N, Lon: 90.38W
Wx Zone: WIZ055Web Search
Richland Center Weather Warning NWS WEATHER ALERT FOR THE RICHLAND CENTER, WI AREA - Issued: 723 AM CST Fri Jan 15 2021 Richland Center Weather Warning  

Helpful Tip: Abbreviated, 7 Day, 14 Day Forecasts. There is a weather forecast for every taste.

Feedback
Richland Center Weather Map
UTC Time: 1/15/2021, 14:32
Your Time:

Richland Center, WI Regional Weather

Expires:202101151500;;954591
ASUS43 KMKX 151420
RWRWI 

WISCONSIN REGIONAL WEATHER ROUNDUP
NATIONAL WEATHER SERVICE MILWAUKEE/SULLIVAN WI
800 AM CST FRI JAN 15 2021

NOTE: "FAIR" INDICATES FEW OR NO CLOUDS BELOW 12,000 FEET WITH NO
SIGNIFICANT WEATHER AND/OR OBSTRUCTIONS TO VISIBILITY.


WIZ032>034-041-042-053>061-151500-
SOUTHWEST WISCONSIN
  
CITY           SKY/WX    TMP DP  RH WIND       PRES   REMARKS
LA CROSSE      CLOUDY    35  30  82 NE9       29.41R WCI  28          
SPARTA           N/A     32  31  97 NE6       29.44R WCI  26          
VIROQUA        CLOUDY    32  32 100 NE8       29.39R VSB 1   WCI  25  
BOSCOBEL       LGT SNOW  34  33  96 NE3       29.40R FOG              
PRAIRIE DU CHI CLOUDY    33  29  88 E5        29.39R WCI  28          
PLATTEVILLE    CLOUDY    32  32 100 E6        29.38R WCI  26          
$$


SKY/WX - Weather  TMP - Temperature  DP - Dew Point  RH - Relative Humidity
WIND - Wind Direction/Speed PRES - Barometric Pressure VSB - Visibility
WCI - Wind Chill Index E13G22 Wind - East Wind 13 mph/Gusts of 22 mph